Regional Weather Roundup
Issued by NWS Little Rock, AR

Home | Current Version | Previous Version | Text Only | Print | Product List | Glossary Off
Versions: 1 2 3 4 5 6 7 8 9 10 11 12 13 14 15 16 17 18 19 20 21 22 23 24 25 26 27

000
ASUS44 KLZK 271305
RWRLZK

WEATHER ROUNDUP FOR ARKANSAS
NATIONAL WEATHER SERVICE LITTLE ROCK AR
800 AM CDT WED JUL 27 2016

NOTE: "FAIR" INDICATES FEW OR NO CLOUDS BELOW 12,000 FEET WITH NO
SIGNIFICANT WEATHER AND/OR OBSTRUCTIONS TO VISIBILITY.

ARZ001-003-010-029-271400-
NORTHWEST ARKANSAS

CITY           SKY/WX    TMP DP  RH WIND       PRES   REMARKS
FAYETTEVILLE   PTSUNNY   73  73 100 CALM      30.00S
FORT SMITH     CLOUDY    79  72  79 E7        29.95F
HARRISON       FOG       71  71 100 SE3       30.02S VSB 1/4
BENTONVILLE    MOSUNNY   73  70  88 NE3       30.02S
ROGERS         MOSUNNY   72  72 100 CALM      30.03R
SILOAM SPGS    CLOUDY    73  64  73 NE3       30.01F
HIGHFILL       CLOUDY    74  73  97 E3        30.01S
SPRINGDALE     PTSUNNY   73  73 100 E6        30.03S
$$

ARZ004-005-016-271400-
NORTH CENTRAL ARKANSAS

CITY           SKY/WX    TMP DP  RH WIND       PRES   REMARKS
BATESVILLE     SUNNY     75  72  88 CALM      29.98S
FLIPPIN        CLOUDY    73  70  88 CALM      29.97S VSB<1/4
MTN HOME       FOG       73  73 100 E3        30.00R VSB 1/2
$$

ARZ040-041-271400-
WEST CENTRAL ARKANSAS

CITY           SKY/WX    TMP DP  RH WIND       PRES   REMARKS
MENA           SUNNY     79  77  94 CALM      29.99F
MOUNT IDA      SUNNY     76  74  93 CALM      29.96R
$$

ARZ009-017-025-026-028-271400-
NORTHEAST ARKANSAS

CITY           SKY/WX    TMP DP  RH WIND       PRES   REMARKS
CORNING          N/A     75  75 100 NE6       29.99S
JONESBORO      SUNNY     78  75  90 MISG      29.97S
NEWPORT        SUNNY     79  77  94 NE5       29.98S
WALNUT RIDGE   SUNNY     77  73  88 NE6       29.97S
BLYTHEVILLE    SUNNY     79  75  87 VRB3      29.98S
$$

ARZ022-023-033-042-044-271400-
CENTRAL ARKANSAS

CITY           SKY/WX    TMP DP  RH WIND       PRES   REMARKS
LITTLE ROCK    CLOUDY    83  74  74 E5        29.95S HX  89
N LITTLE ROCK    N/A     78  74  86 NE3       29.92S
JACKSONVILLE   CLOUDY    80  75  85 NE6       29.94F HX  85
SEARCY         CLOUDY    80  76  87 NE6       29.97S HX  86
HOT SPRINGS    CLOUDY    77  74  90 CALM      29.98R
RUSSELLVILLE   CLOUDY    74  73  97 CALM      29.96S
$$

ARZ036-271400-
EAST ARKANSAS

CITY           SKY/WX    TMP DP  RH WIND       PRES   REMARKS
WEST MEMPHIS   MOSUNNY   79  75  87 S7        29.95S
$$

ARZ050-053-066-070-073-271400-
SOUTHWEST ARKANSAS

CITY           SKY/WX    TMP DP  RH WIND       PRES   REMARKS
CAMDEN         CLOUDY    73  70  88 NE7       29.97R
TEXARKANA      MOSUNNY   78  73  84 CALM      29.96R
EL DORADO      LGT RAIN  75  74  96 E6        29.98R
DE QUEEN       SUNNY     79  74  84 CALM      29.93S
$$

ARZ056-057-069-271400-
SOUTHEAST ARKANSAS

CITY           SKY/WX    TMP DP  RH WIND       PRES   REMARKS
PINE BLUFF     CLOUDY    76  74  93 S8        29.96R
STUTTGART      SUNNY     81  72  74 E7        29.95S
MONTICELLO     CLOUDY    77  74  90 W6        29.97S

$$






USA.gov is the U.S. government's official web portal to all federal, state and local government web resources and services.